User: anonymous   Login
Location: Unspecified
(0.0000°N, 0.0000°E)
Time: 06:06:54
(UTC+02:00)
Language:

Meteor 2-8 Rocket - Orbit

View from above orbital plane
View from above orbital plane
View from above satellite
View from above satellite

Ground track
Ground track

The orbit data is extracted from the following two-line orbital elements,

1 13114U 82025B   17231.37963510  .00000004  00000-0 -98648-5 0  9990
2 13114  82.5422 152.4906 0014054 337.9825 161.4593 13.84661375789156
Epoch (UTC): 19 August 2017 09:06:40
Eccentricity: 0.0014054
inclination: 82.5422°
perigee height: 937 km
apogee height: 957 km
right ascension of ascending node: 152.4906°
argument of perigee: 337.9825°
revolutions per day: 13.84661375
mean anomaly at epoch: 161.4593°
orbit number at epoch: 78915

The dashed part of the orbit path shows where the satellite is in the earth's shadow,  

DLR